Regional Weather Roundup
Issued by NWS

Home | Current Version | Previous Version | Text Only | Print | Product List | Glossary On
Versions: 1 2 3 4 5 6 7 8 9 10 11 12 13 14 15 16 17 18 19 20 21 22 23 24 25 26 27 28 29 30 31 32 33 34 35 36 37 38 39 40 41 42 43 44 45 46 47 48 49 50
000
ASUS43 KDTX 230610
RWRMI
MICHIGAN HOURLY REGIONAL WEATHER ROUNDUP
NATIONAL WEATHER SERVICE DETROIT/PONTIAC MI
100 AM EST TUE JAN 23 2018

NOTE: "FAIR" INDICATES FEW OR NO CLOUDS BELOW 12,000 FEET WITH NO
SIGNIFICANT WEATHER AND/OR OBSTRUCTION TO VISIBILITY.

MIZ047>049-052>055-059>063-066>070-074>076-081>083-230700-
SOUTHEAST LOWER MICHIGAN

CITY           SKY/WX    TMP DP  RH WIND       PRES   REMARKS
ADRIAN         FAIR      42  39  89 W8        29.51F
6HR MIN TEMP:  41; 6HR MAX TEMP:  51; 6HR PCP:  0.17;

ALMA           FOG       39  39 100 CALM      29.44S VSB 1/4
6HR MIN TEMP:  38; 6HR MAX TEMP:  46;

ANN ARBOR      LGT RAIN  44  44 100 S7        29.48R
BAD AXE        MOCLDY    43  43 100 S8        29.48F FOG
6HR MIN TEMP:  43; 6HR MAX TEMP:  45;

CARO           FOG       44  44 100 CALM      29.45F VSB 1/2
DETROIT CITY   FAIR      45  41  86 S9        29.49F
6HR MIN TEMP:  45; 6HR MAX TEMP:  51; 6HR PCP: TRACE;

DETROIT        TSTM      47  45  93 SW26G35   29.51R FOG
6HR MIN TEMP:  43; 6HR MAX TEMP:  50; 6HR PCP:  0.01;

FLINT          FAIR      45  44  97 S5        29.45F FOG
6HR MIN TEMP:  40; 6HR MAX TEMP:  49; 6HR PCP:  0.01;

GROSSE ILE     MIX PCPN  38  37  95 SW14G20   29.50R WCI  30
6HR MIN TEMP:  37; 6HR MAX TEMP:  47; 6HR PCP:  0.09;

HILLSDALE      CLOUDY    43  37  81 W12G21    29.49F
HOWELL         LGT RAIN  46  46  99 SW15G25   29.48R
6HR MIN TEMP:  44; 6HR MAX TEMP:  49; 6HR PCP:  0.04;


CITY           SKY/WX    TMP DP  RH WIND       PRES   REMARKS
JACKSON        CLOUDY    44  41  89 SW10      29.48F
6HR MIN TEMP:  44; 6HR MAX TEMP:  50; 6HR PCP:  0.06;

LAMBERTVILLE   FAIR      46  41  81 SW7       29.52S
6HR MIN TEMP:  46; 6HR MAX TEMP:  53;

LANSING        LGT RAIN  44  44 100 SW10      29.47R
6HR MIN TEMP:  44; 6HR MAX TEMP:  49; 6HR PCP:  0.03;

LAPEER         FAIR      44  44  99 CALM      29.44F FOG
6HR MIN TEMP:  44; 6HR MAX TEMP:  47; 6HR PCP:  0.01;

MONROE         CLOUDY    47  44  86 SW12      29.50R
6HR MIN TEMP:  46; 6HR MAX TEMP:  51;

MT. CLEMENS    MOCLDY   N/A N/A N/A S13         N/A
PONTIAC        MOCLDY    44  44 100 S6        29.46R FOG
6HR MIN TEMP:  41; 6HR MAX TEMP:  48; 6HR PCP:  0.02;

PORT HOPE        N/A     42  42 100 S5        29.46F
6HR MIN TEMP:  36; 6HR MAX TEMP:  44; 6HR PCP:  0.09;

PORT HURON     CLOUDY    45  43  93 S6        29.48F
TRI CITIES     FOG       43  43 100 S5        29.44F VSB 1/4
6HR MIN TEMP:  40; 6HR MAX TEMP:  47;

MIDLAND        FOG       44  44 100 CALM      29.44F VSB<1/4
6HR MIN TEMP:  37; 6HR MAX TEMP:  46;

TROY           FAIR      46  44  93 S5        29.48F
SAGINAW HB     FOG       37  37 100 SE6       29.44F VSB 1/4 WCI  33
$$
MIZ043>046-050>051-056>058-064>065-071>073-077>080-230700-
SOUTHWEST LOWER MICHIGAN

CITY           SKY/WX    TMP DP  RH WIND       PRES   REMARKS
BATTLE CREEK   MOCLDY    41  36  82 W10       29.49S
6HR MIN TEMP:  41; 6HR MAX TEMP:  50; 6HR PCP:  0.09;

BENTON HARBOR  CLOUDY    40  31  70 SW15      29.50S WCI  32
6HR MIN TEMP:  40; 6HR MAX TEMP:  51; 6HR PCP:  0.13;

BIG RAPIDS     FOG       35  34  94 CALM      29.41F VSB 1/4
6HR MIN TEMP:  34; 6HR MAX TEMP:  36;

COLDWATER      MOCLDY    40  37  89 W9        29.51S WCI  34
6HR MIN TEMP:  40; 6HR MAX TEMP:  51;

FREMONT        LGT RAIN  41  40  95 SW12G20   29.41S
6HR MIN TEMP:  40; 6HR MAX TEMP:  43;

HOLLAND        CLOUDY    40  36  86 SW13      29.46F WCI  32
6HR MIN TEMP:  39; 6HR MAX TEMP:  47; 6HR PCP:  0.09;

GRAND RAPIDS   LGT RAIN  41  39  93 SW16      29.45S
6HR MIN TEMP:  41; 6HR MAX TEMP:  48; 6HR PCP:  0.04;

IONIA          LGT RAIN  42  42 100 SW13      29.45R
6HR MIN TEMP:  38; 6HR MAX TEMP:  45; 6HR PCP:  0.08;

KALAMAZOO      MOCLDY    41  36  82 W6        29.49F
6HR MIN TEMP:  41; 6HR MAX TEMP:  50; 6HR PCP:  0.15;

LUDINGTON      FOG       39  39 100 CALM      29.39F VSB 3/4
6HR MIN TEMP:  38; 6HR MAX TEMP:  44; 6HR PCP:  0.07;

MARSHALL       MOCLDY    40  37  87 W10       29.49R WCI  34
6HR MIN TEMP:  40; 6HR MAX TEMP:  50; 6HR PCP:  0.06;

MOUNT PLEASANT FOG       37  36  96 CALM      29.43F VSB 1/4
6HR MIN TEMP:  36; 6HR MAX TEMP:  37; 6HR PCP:  0.01;

MUSKEGON       LGT RAIN  40  38  93 SW7       29.43F
6HR MIN TEMP:  40; 6HR MAX TEMP:  50; 6HR PCP:  0.01;

SOUTH HAVEN    CLOUDY    41  33  72 SW14G20   29.48S
$$
MIZ016>042-230700-
NORTHERN LOWER MICHIGAN

CITY           SKY/WX    TMP DP  RH WIND       PRES   REMARKS
ALPENA         CLOUDY    34  34 100 N8        29.48F FOG     WCI  27
6HR MIN TEMP:  34; 6HR MAX TEMP:  36; 6HR PCP:  0.23;

BEAVER ISLAND  CLOUDY    26  24  92 NE7       29.54F WCI  19
6HR MIN TEMP:  26; 6HR MAX TEMP:  31;

BELLAIRE       CLOUDY    34  34 100 N5        29.47F FOG     WCI  29
6HR MIN TEMP:  33; 6HR MAX TEMP:  35;

CADILLAC       SNOW      35  34  98 CALM      29.40F VSB 1/4
CHARLEVOIX     CLOUDY    30  30 100 NE5       29.52S WCI  25
FRANKFORT      CLOUDY    37  37 100 CALM      29.43F FOG
GAYLORD        CLOUDY    30  30 100 NE10      29.45F FOG     WCI  21
6HR MIN TEMP:  30; 6HR MAX TEMP:  32; 6HR PCP:  0.08;

GRAYLING       CLOUDY    33  32  96 NE6       29.44F FOG     WCI  27
6HR MIN TEMP:  33; 6HR MAX TEMP:  33;

HARBOR SPRINGS CLOUDY    29  28  96 NE6       29.52S WCI  23
HOUGHTON LAKE  FOG       35  34  96 NE5       29.43F VSB 1/4 WCI  31
6HR MIN TEMP:  35; 6HR MAX TEMP:  35; 6HR PCP:  0.11;

MANISTEE       LGT RAIN  38  38 100 NW3       29.40F VSB 1/4
OSCODA         FOG       35  34  99 CALM      29.45F VSB 1/4
6HR MIN TEMP:  34; 6HR MAX TEMP:  35;

PELLSTON       CLOUDY    28  26  92 E12       29.54F WCI  18
6HR MIN TEMP:  28; 6HR MAX TEMP:  30; 6HR PCP:  0.17;

ROGERS CITY    CLOUDY    30  29  96 NE7       29.53F WCI  23
TRAVERSE CITY  CLOUDY    35  35 100 N10       29.43F FOG     WCI  27
6HR MIN TEMP:  35; 6HR MAX TEMP:  36; 6HR PCP:  0.12;

$$
MIZ007>008-015-230700-
EASTERN UPPER MICHIGAN

CITY           SKY/WX    TMP DP  RH WIND       PRES   REMARKS
KINROSS        LGT SNOW  20  18  92 NE13      29.58F FOG     WCI   7
6HR MIN TEMP:  20; 6HR MAX TEMP:  24;

MACKINAC ISLAN CLOUDY    25  24  96 NE24      29.55F WCI   9
6HR MIN TEMP:  24; 6HR MAX TEMP:  29; 6HR PCP:  0.07;

NEWBERRY       CLOUDY    21  20  97 NE13      29.58F WCI   8
6HR MIN TEMP:  21; 6HR MAX TEMP:  24;

S. S. MARIE    LGT SNOW  22  18  85 NE13G20   29.59F FOG     WCI  10
6HR MIN TEMP:  22; 6HR MAX TEMP:  25; 6HR PCP:  0.13;

MUNISING         N/A     25  24  96 NE21      29.63F WCI  11
6HR MIN TEMP:  25; 6HR MAX TEMP:  28; 6HR PCP:  0.12;

$$
MIZ004>006-011>014-085-230700-
CENTRAL UPPER MICHIGAN

CITY           SKY/WX    TMP DP  RH WIND       PRES   REMARKS
MANISTIQUE     CLOUDY    21  21 100 N12G21    29.57F FOG     WCI   9
ESCANABA       LGT SNOW  27  23  86 N10       29.58F FOG     WCI  17
6HR MIN TEMP:  26; 6HR MAX TEMP:  29; 6HR PCP: TRACE;

MENOMINEE      LGT SNOW  28  26  92 NE10      29.57F FOG     WCI  19
6HR MIN TEMP:  28; 6HR MAX TEMP:  29; 6HR PCP: TRACE;

SAWYER-GWINN   CLOUDY    23  21  93 N16G23    29.62S FOG     WCI  10
$$
MIZ001>003-009>011-084-230700-
WESTERN UPPER MICHIGAN

CITY           SKY/WX    TMP DP  RH WIND       PRES   REMARKS
IRON MOUNTAIN  MIX PCPN  26  21  81 N20G28    29.59F WCI  12
6HR MIN TEMP:  26; 6HR MAX TEMP:  28; 6HR PCP:  0.01;

HOUGHTON       LGT SNOW  22  16  78 NE16      29.71F WCI   8
6HR MIN TEMP:  22; 6HR MAX TEMP:  24; 6HR PCP:  0.01;

COPPER HARBOR    N/A     24  20  84 E25G32    29.76F WCI   8
6HR MIN TEMP:  24; 6HR MAX TEMP:  25; 6HR PCP:  0.09;

IRONWOOD       MIX PCPN  20  19  96 N17       29.78R VSB 1/2 WCI   5
6HR MIN TEMP:  20; 6HR MAX TEMP:  24; 6HR PCP:  0.04;

$$

ABBREVIATIONS USED IN REMARKS
   TC - TEMPERATURE IN CELSIUS
  WCI - WIND CHILL INDEX
   HX - HEAT INDEX
  VSB - VISIBILITY





USA.gov is the U.S. government's official web portal to all federal, state and local government web resources and services.